Wind_Speed
1 1 1 3 4 3 5 5 5 4 7 7 9 11 27 30 32 31 27 22 19 15 10 7 5 4 6 8 9 8 8 9 11 14 16 18 20 22 23 24 27 28 28 26
3 5 2 6 7 8 9 6 8 6 16 9 13 19 23 32 34 32 29 25 21 17 12 9 7 6 7 9 10 9 9 11 13 16 18 21 22 23 23 25 27 27 27 29
3 3 4 7 8 8 4 4 7 12 14 7 5 19 29 31 35 33 29 26 25 20 13 10 8 7 8 8 9 9 10 12 15 18 20 22 23 22 24 26 26 27 27 29
3 3 2 6 4 5 8 10 8 7 6 8 12 15 24 32 33 29 28 27 25 20 15 12 10 8 7 8 9 9 11 13 16 19 21 22 22 23 24 25 26 26 27 29
3 3 7 9 4 2 4 7 5 6 5 12 19 17 11 25 24 25 25 26 22 17 14 13 10 9 8 9 9 9 12 14 17 20 21 21 21 23 24 25 25 26 27 28
3 2 5 5 4 6 1 6 7 12 14 19 18 3 4 20 21 24 23 21 21 19 15 13 11 10 9 8 8 10 12 15 18 20 21 21 21 22 23 23 24 25 27 27
2 4 7 6 17 7 2 6 8 16 24 24 6 8 10 10 17 19 21 22 20 17 15 12 12 10 9 9 9 11 13 16 19 20 20 20 20 22 22 23 24 25 27 29
2 4 12 6 4 6 6 4 13 20 27 28 20 14 10 9 15 20 23 22 20 18 16 15 14 11 11 10 10 12 13 17 19 20 19 19 20 21 21 23 24 26 28 30
9 7 5 7 7 7 10 9 19 24 25 25 22 15 12 12 17 20 22 22 19 17 16 16 15 13 12 11 12 12 15 18 19 19 19 19 21 21 22 23 24 26 28 31
3 6 16 19 18 14 13 15 15 23 23 23 23 20 17 16 20 22 23 23 20 19 19 18 16 14 13 13 12 13 17 18 18 18 18 19 19 20 22 23 24 25 27 29
4 7 11 12 13 11 12 15 16 22 22 22 24 24 19 18 20 23 24 25 23 21 20 19 17 15 14 14 14 15 17 18 18 17 18 18 18 20 21 20 21 22 24 25
6 9 8 11 9 9 14 20 19 21 22 22 23 24 20 19 20 22 26 26 26 23 22 20 18 16 15 14 14 16 17 16 16 17 17 17 18 19 19 20 21 21 22 22
5 4 6 5 7 7 6 8 10 14 17 23 25 28 25 23 22 23 27 29 28 26 23 20 18 16 15 15 15 16 16 15 15 16 17 16 18 21 22 19 20 22 22 24
13 13 16 20 13 10 11 11 12 13 17 23 27 29 28 25 24 25 29 31 29 27 25 21 18 16 15 14 14 15 15 14 15 16 16 15 18 19 20 23 25 23 22 24
26 24 27 20 20 20 20 18 20 24 25 25 29 30 29 28 28 28 28 32 32 28 24 21 19 16 15 14 14 14 13 13 14 15 14 15 17 18 19 21 23 24 25 25
25 31 34 30 21 18 17 18 19 18 18 24 31 32 32 32 29 28 28 34 35 32 25 21 18 16 15 15 13 13 12 13 14 14 13 15 17 18 19 21 22 24 25 27
30 35 32 29 25 25 28 28 26 22 20 22 27 30 35 33 30 29 32 35 30 25 20 19 17 16 15 14 13 12 11 13 14 13 13 15 17 18 19 21 22 23 24 25
39 36 31 30 31 33 33 32 29 29 27 26 26 32 37 35 33 33 34 31 27 25 22 19 17 16 15 13 12 12 12 13 12 12 14 16 17 18 19 20 21 23 25 25
37 36 34 33 28 25 24 25 25 25 25 29 30 30 34 37 36 33 31 29 29 27 22 19 17 16 14 12 12 11 12 12 12 13 15 17 17 18 20 21 22 23 24 26
18 18 18 17 17 20 22 23 24 25 25 25 24 28 33 37 36 32 30 24 26 21 18 17 16 14 12 12 12 11 12 12 13 13 15 17 18 19 20 21 22 23 24 26
16 16 15 19 19 19 19 20 23 28 28 29 29 30 31 36 34 27 24 28 24 23 19 16 15 13 12 12 11 11 12 13 13 14 16 18 18 19 21 22 23 24 25 26
16 18 20 20 20 20 20 20 20 21 21 22 23 25 28 31 28 24 24 21 22 21 18 15 13 12 12 12 11 12 13 13 14 15 17 18 18 19 21 23 24 25 26 27
16 16 12 14 17 18 17 18 15 12 11 13 18 21 25 27 23 26 25 23 23 19 16 14 13 13 12 11 11 13 13 14 15 15 17 17 18 20 21 23 25 26 27 28
15 13 13 15 15 14 14 13 11 9 9 9 14 18 22 24 23 22 19 19 17 17 15 14 13 12 11 11 12 13 14 14 15 15 16 17 19 20 22 24 25 26 27 29
16 15 15 14 13 11 10 10 9 8 8 11 15 18 20 17 15 16 19 19 16 16 15 15 13 12 12 12 13 13 13 13 13 14 16 17 19 21 22 24 25 27 29 30
15 14 15 13 10 9 9 8 7 7 10 15 18 19 17 16 17 16 16 16 15 14 14 13 12 11 12 12 13 13 12 12 13 15 16 18 19 21 23 24 26 27 29 31
15 15 13 11 8 8 8 8 8 8 11 14 16 16 17 18 18 17 15 15 14 13 13 12 11 12 12 12 13 12 12 12 14 16 17 18 19 21 23 25 27 28 30 31
Wind_Direction
170 304 321 269 228 228 197 198 183 234 222 227 206 194 186 180 180 182 184 187 193 194 195 200 215 249 285 305 313 317 331 338 343 346 342 339 337 335 336 338 337 337 337 338
308 321 306 258 257 241 238 221 237 244 256 211 260 196 173 182 181 185 192 198 203 205 207 213 231 249 277 298 305 314 330 334 337 336 335 334 334 335 336 336 335 337 338 337
262 345 320 301 234 225 229 218 224 244 252 159 169 180 181 177 184 195 202 209 210 211 213 223 232 257 277 298 301 307 319 324 327 330 331 332 333 333 334 335 336 336 336 336
201 29 309 245 290 233 232 250 230 254 232 200 200 192 183 191 192 202 214 217 213 211 212 223 233 251 278 294 287 295 305 315 322 327 329 330 331 331 334 335 335 336 335 338
161 201 299 299 278 28 251 275 212 207 121 123 128 145 169 194 208 220 225 223 216 214 220 225 235 247 270 280 277 287 301 311 321 326 326 326 329 331 334 333 334 335 336 338
131 173 243 245 260 328 122 282 204 166 153 147 140 114 238 201 218 229 230 218 212 212 220 227 234 244 270 278 279 290 302 312 321 324 323 325 329 332 334 334 334 335 337 341
167 227 277 230 266 348 126 242 180 179 171 163 165 180 181 212 231 230 224 217 214 220 229 233 238 248 268 282 287 300 307 314 319 321 321 324 330 331 334 335 334 335 339 345
127 221 261 222 110 184 225 291 197 188 183 183 186 193 209 220 214 214 213 210 216 221 223 232 234 248 268 279 292 300 305 313 319 320 320 324 328 332 335 335 336 337 340 343
186 208 232 197 225 222 290 267 211 204 200 198 200 211 221 218 211 214 215 218 218 222 228 224 234 249 266 278 290 297 304 314 317 317 318 324 329 334 336 338 340 340 341 342
101 228 238 243 245 255 266 269 236 218 210 209 218 223 225 221 216 217 219 221 222 223 223 225 234 248 262 273 286 296 305 312 315 315 317 323 329 334 335 343 342 340 339 338
265 284 278 268 263 250 259 238 229 222 220 227 225 222 227 224 224 226 224 221 227 229 228 232 240 250 258 271 284 295 303 309 312 314 315 322 329 332 333 342 344 337 336 337
223 228 236 261 271 247 230 220 231 228 227 244 239 239 236 231 235 237 230 224 223 226 229 233 240 249 256 269 281 294 299 305 309 311 314 321 327 329 331 338 342 339 339 339
202 212 233 232 228 263 243 256 250 247 242 245 258 238 238 237 239 243 232 226 224 227 229 234 240 245 254 265 280 291 296 303 308 310 313 319 327 329 330 335 338 341 343 343
243 248 257 254 246 260 264 273 279 264 253 258 258 243 236 238 239 243 239 230 225 225 228 236 238 244 252 265 280 289 296 302 306 309 311 318 325 328 331 333 337 341 344 345
263 255 263 268 278 276 274 272 265 258 258 254 248 238 237 239 244 246 238 226 222 224 229 235 238 243 252 266 279 286 293 298 304 305 308 317 323 326 329 332 338 341 343 344
259 259 264 268 266 270 269 269 266 267 265 255 244 238 243 246 246 243 236 223 220 223 230 236 239 245 255 268 275 283 289 295 302 304 310 314 320 325 327 333 339 342 344 345
248 254 255 257 261 267 269 273 270 262 257 250 248 247 244 241 237 235 228 220 224 231 237 238 243 246 256 265 273 279 283 291 297 305 310 312 319 322 326 331 336 339 342 344
243 250 257 270 277 277 274 269 265 267 265 267 261 251 246 241 239 233 220 214 222 224 231 238 240 246 256 261 268 272 280 289 301 309 309 312 316 319 322 327 333 336 339 341
252 261 269 272 274 278 277 275 270 269 266 265 262 257 251 241 237 229 216 221 225 227 230 233 237 247 251 259 265 269 280 292 307 309 307 310 312 314 317 324 329 334 336 337
258 258 262 270 276 277 280 279 275 272 269 268 268 253 242 233 227 220 212 237 227 234 230 230 239 246 250 258 264 271 284 295 305 306 306 309 309 311 314 320 325 329 332 335
276 278 284 283 279 282 284 287 281 274 272 271 270 256 241 226 217 209 226 218 219 219 223 230 239 243 249 257 265 274 286 296 302 303 305 307 307 309 311 317 321 324 329 332
289 282 278 286 295 292 290 295 297 285 273 265 251 239 229 212 209 225 222 233 222 224 228 234 239 241 250 258 267 278 288 295 298 300 304 306 308 309 311 316 321 323 326 329
291 298 292 292 293 289 292 304 307 292 278 261 244 231 214 209 222 214 218 215 216 223 230 234 235 243 253 262 274 282 288 292 295 299 303 305 310 311 313 318 321 323 324 326
294 286 289 298 294 295 302 304 301 289 273 249 230 217 210 206 211 218 223 221 223 228 231 232 235 247 261 270 279 285 286 290 295 299 303 309 313 313 317 319 322 323 325 327
277 283 296 301 298 301 304 305 295 277 245 213 204 201 207 214 229 232 214 216 221 225 227 229 238 252 263 273 280 282 284 290 295 300 308 313 315 317 320 322 323 324 327 328
272 282 289 286 286 293 300 299 282 254 226 207 201 204 207 216 218 211 213 219 224 224 225 229 241 257 268 274 277 279 284 291 298 305 310 315 318 320 321 324 325 326 327 328
275 285 285 284 292 302 300 289 268 247 228 221 220 212 224 216 212 212 214 217 220 226 226 233 251 264 270 272 272 276 283 291 298 306 313 317 319 321 324 326 328 329 329 328
Height
1534 1534 1533 1534 1534 1535 1538 1540 1548 1536 1536 1528 1528 1530 1528 1532 1538 1541 1545 1548 1550 1551 1552 1554 1555 1555 1555 1554 1553 1552 1551 1549 1548 1546 1544 1541 1537 1534 1531 1527 1523 1518 1513 1509
1552 1538 1535 1535 1532 1533 1533 1532 1532 1530 1525 1519 1520 1524 1529 1529 1533 1537 1541 1545 1548 1549 1550 1551 1553 1553 1553 1552 1551 1550 1548 1547 1546 1544 1541 1538 1534 1530 1527 1524 1520 1515 1510 1505
1545 1541 1539 1543 1530 1525 1522 1520 1521 1525 1511 1514 1518 1518 1519 1524 1529 1534 1537 1540 1542 1545 1547 1549 1550 1550 1550 1549 1548 1547 1546 1545 1544 1541 1538 1534 1531 1527 1524 1520 1516 1512 1507 1502
1553 1544 1559 1522 1518 1517 1519 1513 1511 1510 1508 1508 1508 1513 1518 1523 1526 1531 1534 1536 1539 1542 1544 1546 1547 1546 1546 1546 1546 1545 1545 1543 1541 1538 1535 1531 1527 1524 1521 1517 1513 1507 1503 1497
1551 1557 1536 1518 1511 1513 1513 1510 1505 1506 1507 1508 1511 1516 1521 1524 1528 1529 1530 1532 1536 1539 1542 1543 1544 1544 1544 1543 1543 1543 1542 1540 1538 1534 1531 1527 1523 1520 1517 1513 1508 1504 1499 1493
1556 1555 1544 1522 1511 1509 1508 1518 1500 1500 1505 1508 1512 1527 1520 1522 1524 1526 1529 1531 1533 1536 1538 1539 1540 1541 1541 1540 1540 1539 1538 1537 1533 1530 1527 1523 1519 1515 1512 1509 1504 1499 1495 1489
1548 1542 1525 1510 1508 1510 1524 1519 1500 1501 1504 1508 1511 1512 1517 1520 1521 1523 1525 1527 1530 1532 1534 1535 1536 1537 1537 1537 1536 1535 1535 1533 1530 1526 1522 1519 1515 1511 1508 1505 1500 1495 1489 1483
1542 1536 1525 1503 1509 1516 1507 1501 1499 1501 1502 1504 1508 1511 1515 1517 1518 1519 1522 1524 1526 1528 1530 1531 1532 1533 1533 1533 1533 1531 1531 1529 1525 1522 1518 1514 1511 1507 1504 1500 1495 1490 1484 1478
1523 1515 1500 1500 1500 1500 1500 1499 1500 1500 1502 1505 1508 1510 1511 1512 1514 1516 1518 1520 1522 1524 1526 1527 1527 1528 1529 1529 1529 1528 1526 1524 1521 1518 1515 1510 1506 1502 1499 1496 1490 1485 1479 1473
1509 1500 1497 1495 1496 1497 1497 1497 1496 1499 1502 1503 1504 1507 1508 1509 1510 1512 1514 1515 1517 1518 1520 1521 1521 1523 1524 1524 1524 1523 1521 1519 1516 1514 1511 1506 1502 1498 1495 1491 1486 1481 1476 1469
1503 1497 1495 1493 1492 1492 1493 1494 1495 1497 1498 1498 1500 1502 1503 1504 1506 1507 1508 1510 1512 1514 1514 1516 1517 1518 1519 1519 1519 1518 1517 1514 1512 1509 1507 1503 1498 1494 1492 1489 1483 1478 1473 1467
1499 1489 1489 1489 1488 1488 1488 1490 1492 1493 1495 1496 1497 1498 1499 1500 1501 1502 1503 1505 1506 1508 1510 1511 1512 1514 1514 1514 1514 1513 1512 1509 1507 1505 1503 1499 1495 1493 1489 1485 1481 1477 1471 1465
1485 1486 1487 1486 1487 1487 1488 1489 1490 1490 1492 1492 1491 1492 1493 1493 1494 1495 1497 1498 1500 1501 1504 1505 1506 1508 1509 1509 1509 1508 1507 1504 1502 1500 1498 1495 1490 1487 1484 1483 1478 1473 1468 1462
1483 1484 1482 1482 1481 1482 1483 1484 1484 1485 1485 1485 1485 1486 1488 1488 1489 1489 1489 1491 1494 1496 1498 1500 1501 1502 1503 1504 1503 1503 1502 1499 1497 1496 1493 1490 1487 1484 1481 1476 1471 1469 1465 1459
1478 1477 1476 1477 1476 1477 1478 1478 1478 1478 1477 1477 1477 1480 1481 1481 1482 1482 1483 1487 1491 1492 1494 1496 1496 1497 1498 1498 1498 1497 1496 1495 1493 1491 1489 1486 1483 1480 1477 1473 1468 1463 1459 1455
1470 1469 1469 1470 1470 1471 1472 1471 1470 1470 1470 1470 1471 1473 1474 1474 1476 1477 1478 1481 1483 1485 1489 1491 1492 1493 1494 1493 1493 1492 1491 1490 1488 1487 1485 1482 1479 1476 1473 1469 1464 1459 1455 1450
1464 1459 1460 1461 1464 1464 1464 1464 1463 1462 1463 1463 1464 1466 1466 1467 1470 1471 1473 1476 1480 1484 1486 1487 1488 1489 1489 1489 1489 1488 1487 1486 1484 1482 1480 1478 1475 1472 1468 1464 1460 1455 1451 1447
1452 1451 1453 1456 1457 1456 1456 1456 1456 1456 1455 1456 1457 1457 1459 1461 1461 1462 1466 1471 1477 1479 1480 1482 1483 1484 1485 1485 1484 1484 1483 1481 1480 1478 1475 1473 1470 1468 1464 1460 1456 1451 1447 1443
1447 1447 1448 1449 1448 1447 1447 1447 1446 1445 1445 1446 1446 1448 1449 1451 1453 1456 1462 1466 1470 1472 1474 1476 1478 1479 1480 1480 1480 1479 1478 1477 1475 1473 1471 1469 1466 1464 1461 1457 1452 1448 1443 1439
1441 1442 1443 1442 1441 1441 1440 1439 1438 1437 1437 1437 1438 1439 1440 1443 1447 1452 1457 1460 1464 1468 1470 1472 1473 1475 1475 1475 1475 1475 1474 1472 1471 1469 1467 1465 1462 1460 1457 1453 1448 1444 1440 1435
1436 1436 1436 1436 1434 1434 1433 1432 1430 1429 1429 1429 1429 1430 1432 1436 1442 1449 1452 1456 1460 1463 1465 1467 1469 1470 1471 1471 1471 1470 1470 1468 1466 1465 1463 1461 1458 1456 1452 1449 1444 1440 1436 1431
1431 1431 1430 1428 1427 1427 1426 1424 1422 1420 1419 1420 1421 1423 1427 1434 1440 1444 1449 1453 1456 1459 1461 1463 1465 1466 1467 1467 1467 1466 1465 1464 1462 1460 1459 1457 1454 1452 1448 1444 1440 1436 1431 1427
1426 1424 1423 1423 1422 1421 1420 1418 1416 1415 1415 1415 1418 1421 1425 1430 1435 1439 1443 1448 1452 1455 1457 1459 1461 1462 1463 1463 1462 1462 1461 1460 1458 1456 1455 1453 1450 1447 1444 1440 1436 1431 1427 1422
1420 1420 1419 1419 1417 1416 1415 1414 1413 1412 1412 1414 1416 1421 1425 1430 1434 1437 1441 1445 1449 1451 1453 1455 1456 1458 1458 1458 1458 1457 1457 1456 1454 1452 1450 1448 1446 1443 1439 1435 1431 1427 1422 1417
1416 1415 1415 1414 1413 1413 1412 1411 1410 1410 1411 1413 1417 1421 1425 1429 1433 1436 1439 1442 1445 1447 1450 1451 1453 1454 1454 1454 1454 1453 1452 1451 1449 1448 1446 1444 1441 1438 1434 1431 1426 1422 1417 1412
1411 1411 1410 1410 1410 1409 1409 1409 1409 1409 1411 1413 1416 1419 1423 1427 1431 1433 1436 1439 1442 1444 1446 1448 1449 1449 1450 1449 1449 1449 1448 1446 1445 1444 1442 1439 1436 1433 1430 1426 1422 1417 1412 1407
1406 1406 1405 1406 1406 1405 1406 1406 1407 1408 1410 1413 1416 1419 1421 1424 1428 1431 1434 1436 1439 1441 1443 1444 1444 1445 1445 1445 1445 1444 1443 1442 1441 1439 1437 1435 1432 1429 1425 1421 1417 1412 1407 1402